User: anonymous   Login
Location: Marsån
(66.4167°N, 22.2833°E)
Time: 17:52:12
(UTC+00:00)
Language:

Cosmos 220 Rocket - Orbit

View from above orbital plane
View from above orbital plane
View from above satellite
View from above satellite

Ground track
Ground track

The orbit data is extracted from the following two-line orbital elements,

1  3230U 68040B   24140.63588175  .00006968  00000-0  61848-3 0  9999
2  3230  74.0353 213.4717 0027571 214.6378 145.3012 14.96057338 12432
Epoch (UTC): 19 May 2024 15:15:40
Eccentricity: 0.0027571
inclination: 74.0353°
perigee height: 560 km
apogee height: 598 km
right ascension of ascending node: 213.4717°
argument of perigee: 214.6378°
revolutions per day: 14.96057338
mean anomaly at epoch: 145.3012°
orbit number at epoch: 1243

The dashed part of the orbit path shows where the satellite is in the earth's shadow,  

DLR